Location: Cruquius
(52.3348°N, 4.6319°E)
Time: 09:03:47
(UTC+00:00)

Cosmos 1536 - Pass Details

Date: 12 May 2021
Orbit: 539 x 558 km, 82.5° (Epoch: 15 June)

Event Time Altitude Azimuth Distance (km) Brightness Sun altitude
Rises 20:57:09 0° 353° (N) 2,751 7.5 -11.2°
Reaches altitude 10° 20:59:25 10° 360° (N) 1,848 6.3 -11.4°
Maximum altitude 21:03:20 45° 74° (ENE) 757 3.3 -11.8°
Enters shadow 21:05:59 19° 141° (SE) 1,365 4.2 -12.0°
